STARLINK-34583, 64713

Orbit data source: Space-Track

STARLINK-34583, 64713 is a payload satellite owned by SpaceX/Seattle (US) in LEO that was launched on Sat, 28 Jun 2025 UTC via an FALCON 9 launch vehicle from the Air Force Western Test Range (AFWTR). Payload-class satellites include a variety of spacecraft equipped with specific instruments for various scientific and technological missions. These include communications satellites like Starlink; space stations such as the ISS; scientific satellites like the Hubble; Earth observation satellites from companies like Planet Labs, Umbra, and HawkEye 360; GPS; miniature CubeSats for education and research; and military/defense satellites.

Loading next visibility...
Identifier
64713, 2025-142T
Orbit
LEO
Country
Flag of USUS
Related business
Manufacturer
SpaceX/Seattle
Mission
Operational Commercial Communications
Bus & Motor
STARLINK V2MO, Unknown motor
Mass
575 kg wet, ~530 kg dry
Launch date (UTC)
2025-06-28 (11 months ago)
Launch vehicle
FALCON 9
Launch site
Air Force Western Test Range (AFWTR)
Object type
Payload
Rocket body
Debris
Shape & HBR
Box + 2 Pan, 17.7 m
Radar Cross Section
36.964 m², Large (>1 m²)

Expand to show TLE details & history
Last TLE update: 11 hours ago

TLE from 11 hours ago
0 STARLINK-34583
1 64713U 25142T   26145.30874395  .00002076  00000-0  18172-3 0  9999
2 64713  70.0004 121.3977 0003991 262.2260  97.8446 14.98334732 50935
Epoch: 2026-05-25T07:24Z
TLE epoch observation values (Epoch: 2026-05-25T07:24:35.477Z)
Latitude
-0.00001°
Longitude
127.35148°
Altitude
574.845 km
Speed
7.573 km/s
True Right ascension
08h 05m 35s
True Declination
0° 00' 00"
Sunlit
Object was in daylight at epoch
Visualization orbit readout
Latitude
Unknown
Longitude
Unknown
Altitude
Unknown
Speed
Unknown
Apparent Right ascension
Unknown
Apparent Declination
Unknown
Sunlit
N/A
Visualization observer readout
Local Sidereal Time
03:10:45
Azimuth
Unknown
Elevation
Unknown
Doppler factor
Unknown
Orbital elements
Apogee altitude
572.762 km
Perigee altitude
567.216 km
Semi-major axis
6,948.126 km
Eccentricity
0.0004
Inclination
70.0004°
RAAN
121.3977°
Arg. of periapsis
262.226°
True anomaly
97.8899°
Mean anomaly
97.8446°
Eccentric anomaly
97.86725°
Mean motion
3.7475 °/min
Orbital period
96.06 mins
BSTAR
0.00018172
Loading maneuver chart data...
Computing Atmospheric mass density...
Loading historical data...
Loading historical data...
Loading historical data...
Loading historical data...
Loading historical data...
Loading historical data...
Loading historical data...

Documentation

Showing up to 5 results
|